Time,TemperatureF,DewpointF,PressureIn,WindDirection,WindDirectionDegrees,WindSpeedMPH,WindSpeedGustMPH,Humidity,HourlyPrecipIn,Conditions,Clouds,dailyrainin,SoftwareType,DateUTC
2013-02-04 00:04:00,13.0,9.6,29.78,NNW,338,0.0,2.0,86,0.00,OVC,OVC,0.00,WeatherDisplay:10.37,2013-02-04 05:04:00,
2013-02-04 00:09:00,13.0,9.6,29.78,NNW,345,0.0,2.0,86,0.00,OVC,OVC,0.00,WeatherDisplay:10.37,2013-02-04 05:09:00,
2013-02-04 00:14:00,13.0,9.6,29.78,NNW,338,0.0,2.0,86,0.00,-SN,OVC,0.00,WeatherDisplay:10.37,2013-02-04 05:14:00,
2013-02-04 00:19:00,13.0,9.9,29.78,NNW,343,0.0,2.0,87,0.00,-SN,OVC,0.00,WeatherDisplay:10.37,2013-02-04 05:19:00,
2013-02-04 00:24:00,13.0,9.9,29.78,NNW,347,0.0,1.0,87,0.00,-SN,OVC,0.00,WeatherDisplay:10.37,2013-02-04 05:24:00,
2013-02-04 00:29:00,13.1,10.0,29.78,NNW,344,0.0,1.0,87,0.00,-SN,OVC,0.00,WeatherDisplay:10.37,2013-02-04 05:29:00,
2013-02-04 00:34:00,13.1,10.0,29.78,NNW,332,1.0,2.0,87,0.00,-SN,OVC,0.00,WeatherDisplay:10.37,2013-02-04 05:34:00,
2013-02-04 00:39:00,13.2,10.0,29.78,NNW,330,0.0,2.0,87,0.00,-SN,OVC,0.00,WeatherDisplay:10.37,2013-02-04 05:39:00,
2013-02-04 00:44:00,13.2,10.1,29.78,NW,323,1.0,2.0,87,0.00,-SN,OVC,0.00,WeatherDisplay:10.37,2013-02-04 05:44:00,
2013-02-04 00:49:00,13.2,10.1,29.78,NW,312,1.0,2.0,87,0.00,-SN,OVC,0.00,WeatherDisplay:10.37,2013-02-04 05:49:00,
2013-02-04 00:54:00,13.2,10.1,29.77,NW,319,1.0,3.0,87,0.00,-SN,OVC,0.00,WeatherDisplay:10.37,2013-02-04 05:54:00,
2013-02-04 00:59:00,13.2,10.1,29.78,NW,317,1.0,3.0,87,0.00,-SN,OVC,0.00,WeatherDisplay:10.37,2013-02-04 05:59:00,
2013-02-04 01:04:00,13.2,10.1,29.77,NW,313,1.0,3.0,87,0.00,-SN,OVC,0.00,WeatherDisplay:10.37,2013-02-04 06:04:00,
2013-02-04 01:09:00,13.1,10.0,29.77,NW,314,1.0,4.0,87,0.00,-SN,OVC,0.00,WeatherDisplay:10.37,2013-02-04 06:09:00,
2013-02-04 01:14:00,13.1,10.0,29.77,NW,316,2.0,4.0,87,0.00,-SN,OVC,0.00,WeatherDisplay:10.37,2013-02-04 06:14:00,
2013-02-04 01:19:00,13.1,10.0,29.77,NW,320,1.0,3.0,87,0.00,-SN,OVC,0.00,WeatherDisplay:10.37,2013-02-04 06:19:00,
2013-02-04 01:24:00,13.1,9.7,29.77,NNW,331,1.0,3.0,86,0.00,-SN,OVC,0.00,WeatherDisplay:10.37,2013-02-04 06:24:00,
2013-02-04 01:29:00,13.0,9.6,29.77,NNW,334,0.0,2.0,86,0.00,-SN,OVC,0.00,WeatherDisplay:10.37,2013-02-04 06:29:00,
2013-02-04 01:34:00,13.0,9.9,29.77,NNW,332,0.0,2.0,87,0.00,-SN,OVC,0.00,WeatherDisplay:10.37,2013-02-04 06:34:00,
2013-02-04 01:39:00,12.9,9.5,29.77,NNW,336,0.0,2.0,86,0.00,-SN,OVC,0.00,WeatherDisplay:10.37,2013-02-04 06:39:00,
2013-02-04 01:44:00,12.8,9.4,29.77,NNW,329,0.0,2.0,86,0.00,-SN,OVC,0.00,WeatherDisplay:10.37,2013-02-04 06:44:00,
2013-02-04 01:49:00,12.7,9.3,29.77,NW,320,0.0,2.0,86,0.00,-SN,OVC,0.00,WeatherDisplay:10.37,2013-02-04 06:49:00,
2013-02-04 01:54:00,12.6,9.2,29.77,NW,318,0.0,2.0,86,0.00,-SN,OVC,0.00,WeatherDisplay:10.37,2013-02-04 06:54:00,
2013-02-04 01:59:00,12.5,9.1,29.77,NW,315,0.0,2.0,86,0.00,-SN,OVC,0.00,WeatherDisplay:10.37,2013-02-04 06:59:00,
2013-02-04 02:04:00,12.4,9.0,29.77,NW,322,0.0,2.0,86,0.00,-SN,OVC,0.00,WeatherDisplay:10.37,2013-02-04 07:04:00,
2013-02-04 02:09:00,12.3,8.9,29.77,NW,324,0.0,2.0,86,0.00,-SN,OVC,0.00,WeatherDisplay:10.37,2013-02-04 07:09:00,
2013-02-04 02:14:00,12.2,8.8,29.77,NW,323,0.0,2.0,86,0.00,-SN,OVC,0.00,WeatherDisplay:10.37,2013-02-04 07:14:00,
2013-02-04 02:19:00,12.1,8.7,29.77,NW,325,1.0,2.0,86,0.00,-SN,OVC,0.00,WeatherDisplay:10.37,2013-02-04 07:19:00,
2013-02-04 02:24:00,11.9,8.6,29.77,NW,324,1.0,2.0,86,0.00,-SN,OVC,0.00,WeatherDisplay:10.37,2013-02-04 07:24:00,
2013-02-04 02:29:00,11.8,8.4,29.77,NW,322,1.0,4.0,86,0.00,-SN,OVC,0.00,WeatherDisplay:10.37,2013-02-04 07:29:00,
2013-02-04 02:34:00,11.7,8.3,29.77,NW,321,0.0,2.0,86,0.00,-SN,OVC,0.00,WeatherDisplay:10.37,2013-02-04 07:34:00,
2013-02-04 02:39:00,11.6,8.2,29.77,NW,318,0.0,1.0,86,0.00,-SN,OVC,0.00,WeatherDisplay:10.37,2013-02-04 07:39:00,
2013-02-04 02:44:00,11.5,8.1,29.76,NW,318,0.0,0.0,86,0.00,-SN,OVC,0.00,WeatherDisplay:10.37,2013-02-04 07:44:00,
2013-02-04 02:49:00,11.5,7.8,29.76,NW,318,0.0,0.0,85,0.00,-SN,OVC,0.00,WeatherDisplay:10.37,2013-02-04 07:49:00,
2013-02-04 02:54:00,11.3,7.7,29.76,NW,318,0.0,0.0,85,0.00,-SN,OVC,0.00,WeatherDisplay:10.37,2013-02-04 07:54:00,
2013-02-04 02:59:00,11.2,7.6,29.76,NW,318,0.0,0.0,85,0.00,-SN,OVC,0.00,WeatherDisplay:10.37,2013-02-04 07:59:00,
2013-02-04 03:04:00,11.0,7.4,29.76,NW,318,0.0,0.0,85,0.00,-SN,OVC,0.00,WeatherDisplay:10.37,2013-02-04 08:04:00,
2013-02-04 03:09:00,10.8,6.9,29.76,NW,318,0.0,0.0,84,0.00,-SN,OVC,0.00,WeatherDisplay:10.37,2013-02-04 08:09:00,
2013-02-04 03:14:00,10.6,6.7,29.76,NW,318,0.0,0.0,84,0.00,-SN,OVC,0.00,WeatherDisplay:10.37,2013-02-04 08:14:00,
2013-02-04 03:19:00,10.3,6.4,29.76,NW,318,0.0,0.0,84,0.00,-SN,OVC,0.00,WeatherDisplay:10.37,2013-02-04 08:19:00,
2013-02-04 03:24:00,10.0,5.9,29.76,NW,318,0.0,0.0,83,0.00,-SN,OVC,0.00,WeatherDisplay:10.37,2013-02-04 08:24:00,
2013-02-04 03:29:00,9.7,5.3,29.76,NW,318,0.0,0.0,82,0.00,-SN,OVC,0.00,WeatherDisplay:10.37,2013-02-04 08:29:00,
2013-02-04 03:34:00,9.3,4.6,29.76,NW,318,0.0,0.0,81,0.00,-SN,OVC,0.00,WeatherDisplay:10.37,2013-02-04 08:34:00,
2013-02-04 03:39:00,8.7,4.4,29.75,NW,318,0.0,0.0,82,0.00,-SN,OVC,0.00,WeatherDisplay:10.37,2013-02-04 08:39:00,
2013-02-04 03:44:00,8.2,3.9,29.76,NW,318,0.0,0.0,82,0.00,-SN,OVC,0.00,WeatherDisplay:10.37,2013-02-04 08:44:00,
2013-02-04 03:49:00,7.8,3.4,29.76,NW,318,0.0,0.0,82,0.00,-SN,OVC,0.00,WeatherDisplay:10.37,2013-02-04 08:49:00,
2013-02-04 03:54:00,7.4,3.0,29.75,NW,318,0.0,0.0,82,0.00,-SN,OVC,0.00,WeatherDisplay:10.37,2013-02-04 08:54:00,
2013-02-04 03:59:00,7.1,2.7,29.76,NW,318,0.0,0.0,82,0.00,-SN,OVC,0.00,WeatherDisplay:10.37,2013-02-04 08:59:00,
2013-02-04 04:04:00,6.7,2.1,29.76,NW,318,0.0,0.0,81,0.00,-SN,OVC,0.00,WeatherDisplay:10.37,2013-02-04 09:04:00,
2013-02-04 04:09:00,6.2,1.9,29.76,NW,318,0.0,1.0,82,0.00,-SN,OVC,0.00,WeatherDisplay:10.37,2013-02-04 09:09:00,
2013-02-04 04:14:00,5.8,1.5,29.76,NW,318,0.0,1.0,82,0.00,FEW,OVC,0.00,WeatherDisplay:10.37,2013-02-04 09:14:00,
2013-02-04 04:19:00,5.4,1.4,29.76,NW,318,0.0,2.0,83,0.00,FEW,OVC,0.00,WeatherDisplay:10.37,2013-02-04 09:19:00,
2013-02-04 04:24:00,5.2,1.1,29.76,NW,318,0.0,1.0,83,0.00,FEW,OVC,0.00,WeatherDisplay:10.37,2013-02-04 09:24:00,
2013-02-04 04:29:00,4.9,1.1,29.76,NW,313,1.0,2.0,84,0.00,FEW,OVC,0.00,WeatherDisplay:10.37,2013-02-04 09:29:00,
2013-02-04 04:34:00,4.8,1.5,29.76,NW,306,1.0,3.0,86,0.00,FEW,OVC,0.00,WeatherDisplay:10.37,2013-02-04 09:34:00,
2013-02-04 04:39:00,4.8,1.8,29.76,NW,312,1.0,3.0,87,0.00,FEW,OVC,0.00,WeatherDisplay:10.37,2013-02-04 09:39:00,
2013-02-04 04:44:00,5.0,2.2,29.76,NW,309,0.0,3.0,88,0.00,FEW,OVC,0.00,WeatherDisplay:10.37,2013-02-04 09:44:00,
2013-02-04 04:49:00,5.2,2.4,29.76,WNW,302,0.0,2.0,88,0.00,FEW,OVC,0.00,WeatherDisplay:10.37,2013-02-04 09:49:00,
2013-02-04 04:54:00,5.3,2.5,29.75,NW,305,0.0,2.0,88,0.00,FEW,OVC,0.00,WeatherDisplay:10.37,2013-02-04 09:54:00,
2013-02-04 04:59:00,5.4,2.6,29.76,NW,306,0.0,1.0,88,0.00,FEW,OVC,0.00,WeatherDisplay:10.37,2013-02-04 09:59:00,
2013-02-04 05:04:00,5.4,2.6,29.76,NW,306,0.0,1.0,88,0.00,FEW,OVC,0.00,WeatherDisplay:10.37,2013-02-04 10:04:00,
2013-02-04 05:09:00,5.4,2.4,29.76,NW,306,0.0,0.0,87,0.00,FEW,OVC,0.00,WeatherDisplay:10.37,2013-02-04 10:09:00,
2013-02-04 05:14:00,5.3,1.8,29.76,NW,306,0.0,0.0,85,0.00,FEW,OVC,0.00,WeatherDisplay:10.37,2013-02-04 10:14:00,
2013-02-04 05:19:00,5.1,1.3,29.76,NW,306,0.0,0.0,84,0.00,FEW,OVC,0.00,WeatherDisplay:10.37,2013-02-04 10:19:00,
2013-02-04 05:24:00,4.8,0.5,29.76,NW,306,0.0,0.0,82,0.00,FEW,OVC,0.00,WeatherDisplay:10.37,2013-02-04 10:24:00,
2013-02-04 05:29:00,4.5,0.0,29.76,NW,306,0.0,0.0,81,0.00,FEW,OVC,0.00,WeatherDisplay:10.37,2013-02-04 10:29:00,
2013-02-04 05:34:00,4.1,-0.4,29.76,NW,306,0.0,0.0,81,0.00,FEW,OVC,0.00,WeatherDisplay:10.37,2013-02-04 10:34:00,
2013-02-04 05:39:00,3.7,-0.8,29.76,NW,306,0.0,0.0,81,0.00,FEW,OVC,0.00,WeatherDisplay:10.37,2013-02-04 10:39:00,
2013-02-04 05:44:00,3.2,-1.0,29.76,NW,306,0.0,0.0,82,0.00,FEW,OVC,0.00,WeatherDisplay:10.37,2013-02-04 10:44:00,
2013-02-04 05:49:00,2.8,-1.4,29.76,NW,306,0.0,0.0,82,0.00,FEW,OVC,0.00,WeatherDisplay:10.37,2013-02-04 10:49:00,
2013-02-04 05:54:00,2.7,-1.6,29.76,NW,306,0.0,0.0,82,0.00,FEW,OVC,0.00,WeatherDisplay:10.37,2013-02-04 10:54:00,
2013-02-04 05:59:00,2.5,-1.5,29.76,NW,306,0.0,0.0,83,0.00,FEW,OVC,0.00,WeatherDisplay:10.37,2013-02-04 10:59:00,
2013-02-04 06:04:00,2.3,-1.9,29.76,NW,306,0.0,0.0,82,0.00,FEW,OVC,0.00,WeatherDisplay:10.37,2013-02-04 11:04:00,
2013-02-04 06:09:00,2.0,-2.2,29.76,NW,306,0.0,0.0,82,0.00,FEW,OVC,0.00,WeatherDisplay:10.37,2013-02-04 11:09:00,
2013-02-04 06:14:00,1.8,-2.5,29.76,NW,306,0.0,0.0,82,0.00,FEW,OVC,0.00,WeatherDisplay:10.37,2013-02-04 11:14:00,
2013-02-04 06:19:00,1.4,-2.8,29.77,NW,306,0.0,0.0,82,0.00,FEW,OVC,0.00,WeatherDisplay:10.37,2013-02-04 11:19:00,
2013-02-04 06:24:00,1.2,-3.0,29.77,WNW,284,0.0,0.0,82,0.00,FEW,OVC,0.00,WeatherDisplay:10.37,2013-02-04 11:24:00,
2013-02-04 06:34:00,0.9,-2.8,29.77,West,277,0.0,1.0,84,0.00,FEW,OVC,0.00,WeatherDisplay:10.37,2013-02-04 11:34:00,
2013-02-04 06:39:00,0.8,-2.7,29.77,WNW,294,0.0,1.0,85,0.00,FEW,OVC,0.00,WeatherDisplay:10.37,2013-02-04 11:39:00,
2013-02-04 06:44:00,0.8,-2.4,29.77,WNW,294,0.0,1.0,86,0.00,FEW,OVC,0.00,WeatherDisplay:10.37,2013-02-04 11:44:00,
2013-02-04 06:49:00,0.9,-2.3,29.77,WNW,292,0.0,1.0,86,0.00,FEW,OVC,0.00,WeatherDisplay:10.37,2013-02-04 11:49:00,
2013-02-04 06:54:00,1.0,-2.0,29.77,WSW,253,0.0,2.0,87,0.00,-SN,OVC,0.00,WeatherDisplay:10.37,2013-02-04 11:54:00,
2013-02-04 06:59:00,1.2,-1.8,29.77,West,263,0.0,1.0,87,0.00,-SN,OVC,0.00,WeatherDisplay:10.37,2013-02-04 11:59:00,
2013-02-04 07:04:00,1.5,-1.3,29.77,West,275,0.0,0.0,88,0.00,-SN,OVC,0.00,WeatherDisplay:10.37,2013-02-04 12:04:00,
2013-02-04 07:09:00,1.7,-1.0,29.77,West,276,0.0,1.0,88,0.00,-SN,OVC,0.00,WeatherDisplay:10.37,2013-02-04 12:09:00,
2013-02-04 07:14:00,1.9,-1.1,29.77,West,277,0.0,1.0,87,0.00,-SN,OVC,0.00,WeatherDisplay:10.37,2013-02-04 12:14:00,
2013-02-04 07:19:00,2.0,-1.0,29.77,West,278,0.0,1.0,87,0.00,-SN,OVC,0.00,WeatherDisplay:10.37,2013-02-04 12:19:00,
2013-02-04 07:24:00,2.1,-0.9,29.77,West,278,0.0,1.0,87,0.00,-SN,OVC,0.00,WeatherDisplay:10.37,2013-02-04 12:24:00,
2013-02-04 07:29:00,2.1,-1.1,29.77,West,278,0.0,1.0,86,0.00,-SN,OVC,0.00,WeatherDisplay:10.37,2013-02-04 12:29:00,
2013-02-04 07:34:00,2.1,-1.1,29.77,West,278,0.0,0.0,86,0.00,-SN,OVC,0.00,WeatherDisplay:10.37,2013-02-04 12:34:00,
2013-02-04 07:39:00,2.2,-1.1,29.77,West,278,0.0,1.0,86,0.00,-SN,OVC,0.00,WeatherDisplay:10.37,2013-02-04 12:39:00,
2013-02-04 07:44:00,2.3,-0.7,29.77,West,278,0.0,0.0,87,0.00,-SN,OVC,0.00,WeatherDisplay:10.37,2013-02-04 12:44:00,
2013-02-04 07:49:00,2.4,-0.6,29.77,West,278,0.0,0.0,87,0.00,-SN,OVC,0.00,WeatherDisplay:10.37,2013-02-04 12:49:00,
2013-02-04 07:54:00,2.5,-0.7,29.77,West,278,0.0,0.0,86,0.00,-SN,OVC,0.00,WeatherDisplay:10.37,2013-02-04 12:54:00,
2013-02-04 07:59:00,2.6,-0.6,29.76,West,278,0.0,0.0,86,0.00,-SN,OVC,0.00,WeatherDisplay:10.37,2013-02-04 12:59:00,
2013-02-04 08:04:00,2.8,-0.2,29.76,West,278,0.0,0.0,87,0.00,-SN,OVC,0.00,WeatherDisplay:10.37,2013-02-04 13:04:00,
2013-02-04 08:09:00,3.0,0.0,29.76,West,278,0.0,0.0,87,0.00,-SN,OVC,0.00,WeatherDisplay:10.37,2013-02-04 13:09:00,
2013-02-04 08:14:00,3.1,0.1,29.76,West,278,0.0,0.0,87,0.00,-SN,OVC,0.00,WeatherDisplay:10.37,2013-02-04 13:14:00,
2013-02-04 08:19:00,3.3,0.3,29.76,West,278,0.0,0.0,87,0.00,-SN,OVC,0.00,WeatherDisplay:10.37,2013-02-04 13:19:00,
2013-02-04 08:24:00,3.5,0.7,29.76,West,278,0.0,0.0,88,0.00,-SN,OVC,0.00,WeatherDisplay:10.37,2013-02-04 13:24:00,
2013-02-04 08:29:00,3.7,0.9,29.75,West,278,0.0,0.0,88,0.00,-SN,OVC,0.00,WeatherDisplay:10.37,2013-02-04 13:29:00,
2013-02-04 08:34:00,4.1,1.3,29.75,West,278,0.0,0.0,88,0.00,-SN,OVC,0.00,WeatherDisplay:10.37,2013-02-04 13:34:00,
2013-02-04 08:39:00,4.4,1.6,29.75,West,278,0.0,0.0,88,0.00,-SN,OVC,0.00,WeatherDisplay:10.37,2013-02-04 13:39:00,
2013-02-04 08:44:00,4.7,2.2,29.75,West,278,0.0,0.0,89,0.00,-SN,OVC,0.00,WeatherDisplay:10.37,2013-02-04 13:44:00,
2013-02-04 08:49:00,5.2,2.7,29.75,West,278,0.0,0.0,89,0.00,-SN,OVC,0.00,WeatherDisplay:10.37,2013-02-04 13:49:00,
2013-02-04 08:54:00,5.7,3.4,29.75,West,278,0.0,0.0,90,0.00,-SN,OVC,0.00,WeatherDisplay:10.37,2013-02-04 13:54:00,
2013-02-04 08:59:00,6.3,4.0,29.75,West,271,0.0,2.0,90,0.00,-SN,OVC,0.00,WeatherDisplay:10.37,2013-02-04 13:59:00,
2013-02-04 09:04:00,7.1,5.0,29.75,WSW,252,0.0,3.0,91,0.00,-SN,OVC,0.00,WeatherDisplay:10.37,2013-02-04 14:04:00,
2013-02-04 09:09:00,9.2,7.1,29.74,SW,231,1.0,3.0,91,0.00,-SN,OVC,0.00,WeatherDisplay:10.37,2013-02-04 14:09:00,
2013-02-04 09:14:00,10.4,8.1,29.74,SW,230,0.0,2.0,90,0.00,-SN,OVC,0.00,WeatherDisplay:10.37,2013-02-04 14:14:00,
2013-02-04 09:19:00,11.1,8.5,29.74,SW,230,0.0,2.0,89,0.00,-SN,OVC,0.00,WeatherDisplay:10.37,2013-02-04 14:19:00,
2013-02-04 09:29:00,12.6,10.0,29.74,SW,229,1.0,5.0,89,0.00,-SN,OVC,0.00,WeatherDisplay:10.37,2013-02-04 14:29:00,
2013-02-04 09:34:00,13.0,10.4,29.74,WSW,240,2.0,6.0,89,0.00,-SN,OVC,0.00,WeatherDisplay:10.37,2013-02-04 14:34:00,
2013-02-04 09:39:00,13.1,10.2,29.74,SW,229,1.0,4.0,88,0.00,-SN,OVC,0.00,WeatherDisplay:10.37,2013-02-04 14:39:00,
2013-02-04 09:44:00,13.1,10.2,29.74,WSW,242,1.0,7.0,88,0.00,-SN,OVC,0.00,WeatherDisplay:10.37,2013-02-04 14:44:00,
2013-02-04 09:49:00,13.2,10.1,29.74,SW,232,2.0,7.0,87,0.00,-SN,OVC,0.00,WeatherDisplay:10.37,2013-02-04 14:49:00,
2013-02-04 09:54:00,13.3,10.2,29.74,SSW,213,1.0,4.0,87,0.00,-SN,OVC,0.00,WeatherDisplay:10.37,2013-02-04 14:54:00,
2013-02-04 09:59:00,13.4,10.3,29.73,WSW,247,1.0,7.0,87,0.00,-SN,OVC,0.00,WeatherDisplay:10.37,2013-02-04 14:59:00,
2013-02-04 10:04:00,13.9,10.7,29.73,West,268,1.0,5.0,87,0.00,-SN,OVC,0.00,WeatherDisplay:10.37,2013-02-04 15:04:00,
2013-02-04 10:09:00,14.0,10.3,29.73,SW,233,5.0,7.0,85,0.00,-SN,OVC,0.00,WeatherDisplay:10.37,2013-02-04 15:09:00,
2013-02-04 10:14:00,14.2,10.3,29.73,SW,225,2.0,7.0,84,0.00,-SN,OVC,0.00,WeatherDisplay:10.37,2013-02-04 15:14:00,
2013-02-04 10:19:00,14.5,10.5,29.73,SW,234,3.0,9.0,84,0.00,-SN,OVC,0.00,WeatherDisplay:10.37,2013-02-04 15:19:00,
2013-02-04 10:24:00,14.8,10.6,29.73,SW,234,5.0,7.0,83,0.00,-SN,OVC,0.00,WeatherDisplay:10.37,2013-02-04 15:24:00,
2013-02-04 10:29:00,15.3,10.8,29.73,SW,224,3.0,8.0,82,0.00,-SN,OVC,0.00,WeatherDisplay:10.37,2013-02-04 15:29:00,
2013-02-04 10:34:00,15.8,11.3,29.73,WSW,243,2.0,7.0,82,0.00,-SN,OVC,0.00,WeatherDisplay:10.37,2013-02-04 15:34:00,
2013-02-04 10:39:00,16.3,11.5,29.73,West,276,7.0,10.0,81,0.00,-SN,OVC,0.00,WeatherDisplay:10.37,2013-02-04 15:39:00,
2013-02-04 10:44:00,16.7,11.6,29.73,WNW,291,6.0,10.0,80,0.00,-SN,OVC,0.00,WeatherDisplay:10.37,2013-02-04 15:44:00,
2013-02-04 10:49:00,16.4,11.6,29.73,WNW,298,7.0,12.0,81,0.00,-SN,OVC,0.00,WeatherDisplay:10.37,2013-02-04 15:49:00,
2013-02-04 10:54:00,16.2,11.1,29.73,NW,305,8.0,13.0,80,0.00,-SN,OVC,0.00,WeatherDisplay:10.37,2013-02-04 15:54:00,
2013-02-04 10:59:00,16.0,10.4,29.73,WNW,298,3.0,12.0,78,0.00,-SN,OVC,0.00,WeatherDisplay:10.37,2013-02-04 15:59:00,
2013-02-04 11:04:00,16.0,10.1,29.73,West,276,3.0,14.0,77,0.00,-SN,OVC,0.00,WeatherDisplay:10.37,2013-02-04 16:04:00,
2013-02-04 11:09:00,16.2,9.9,29.73,West,265,6.0,13.0,76,0.00,-SN,OVC,0.00,WeatherDisplay:10.37,2013-02-04 16:09:00,
2013-02-04 11:14:00,16.5,9.9,29.73,West,265,3.0,10.0,75,0.00,-SN,OVC,0.00,WeatherDisplay:10.37,2013-02-04 16:14:00,
2013-02-04 11:19:00,16.5,10.0,29.72,WNW,286,6.0,11.0,75,0.00,-SN,OVC,0.00,WeatherDisplay:10.37,2013-02-04 16:19:00,
2013-02-04 11:24:00,16.5,9.4,29.73,WNW,290,8.0,12.0,73,0.00,-SN,OVC,0.00,WeatherDisplay:10.37,2013-02-04 16:24:00,
2013-02-04 11:29:00,16.7,9.2,29.72,WNW,290,3.0,12.0,72,0.00,-SN,OVC,0.00,WeatherDisplay:10.37,2013-02-04 16:29:00,
2013-02-04 11:34:00,16.6,9.4,29.72,WNW,289,7.0,18.0,73,0.00,-SN,OVC,0.00,WeatherDisplay:10.37,2013-02-04 16:34:00,
2013-02-04 11:39:00,16.3,9.5,29.72,WNW,292,9.0,15.0,74,0.00,-SN,OVC,0.00,WeatherDisplay:10.37,2013-02-04 16:39:00,
2013-02-04 11:44:00,16.2,9.1,29.72,WNW,290,6.0,12.0,73,0.00,-SN,OVC,0.00,WeatherDisplay:10.37,2013-02-04 16:44:00,
2013-02-04 11:49:00,16.3,8.9,29.72,WNW,299,6.0,8.0,72,0.00,-SN,OVC,0.00,WeatherDisplay:10.37,2013-02-04 16:49:00,
2013-02-04 11:54:00,16.7,8.9,29.72,WNW,282,6.0,9.0,71,0.00,-SN,OVC,0.00,WeatherDisplay:10.37,2013-02-04 16:54:00,
2013-02-04 11:59:00,16.7,8.3,29.71,WNW,297,5.0,13.0,69,0.00,-SN,OVC,0.00,WeatherDisplay:10.37,2013-02-04 16:59:00,
2013-02-04 12:04:00,16.6,8.8,29.71,WNW,297,2.0,14.0,71,0.00,-SN,OVC,0.00,WeatherDisplay:10.37,2013-02-04 17:04:00,
2013-02-04 12:09:00,16.3,8.5,29.71,WNW,293,6.0,13.0,71,0.00,-SN,OVC,0.00,WeatherDisplay:10.37,2013-02-04 17:09:00,
2013-02-04 12:14:00,15.9,7.9,29.71,WNW,298,6.0,14.0,70,0.00,-SN,OVC,0.00,WeatherDisplay:10.37,2013-02-04 17:14:00,
2013-02-04 12:19:00,15.8,8.4,29.71,West,267,2.0,10.0,72,0.00,-SN,OVC,0.00,WeatherDisplay:10.37,2013-02-04 17:19:00,
2013-02-04 12:24:00,15.8,8.7,29.71,West,275,6.0,12.0,73,0.00,-SN,OVC,0.00,WeatherDisplay:10.37,2013-02-04 17:24:00,
2013-02-04 12:29:00,16.5,8.4,29.71,WNW,288,5.0,16.0,70,0.00,-SN,OVC,0.00,WeatherDisplay:10.37,2013-02-04 17:29:00,
2013-02-04 12:34:00,17.1,7.7,29.71,WNW,295,6.0,15.0,66,0.00,-SN,OVC,0.00,WeatherDisplay:10.37,2013-02-04 17:34:00,
2013-02-04 12:39:00,16.9,6.8,29.71,West,281,7.0,13.0,64,0.00,-SN,OVC,0.00,WeatherDisplay:10.37,2013-02-04 17:39:00,
2013-02-04 12:44:00,17.5,7.4,29.72,WNW,288,6.0,16.0,64,0.00,-SN,OVC,0.00,WeatherDisplay:10.37,2013-02-04 17:44:00,
2013-02-04 12:49:00,17.4,7.6,29.72,West,270,7.0,17.0,65,0.00,-SN,OVC,0.00,WeatherDisplay:10.37,2013-02-04 17:49:00,
2013-02-04 12:54:00,17.0,6.9,29.72,West,280,10.0,16.0,64,0.00,-SN,OVC,0.00,WeatherDisplay:10.37,2013-02-04 17:54:00,
2013-02-04 12:59:00,16.1,5.7,29.72,NW,313,7.0,14.0,63,0.00,-SN,OVC,0.00,WeatherDisplay:10.37,2013-02-04 17:59:00,
2013-02-04 13:04:00,15.6,4.1,29.72,WNW,299,10.0,17.0,60,0.00,-SN,OVC,0.00,WeatherDisplay:10.37,2013-02-04 18:04:00,
2013-02-04 13:09:00,15.2,4.1,29.72,West,275,9.0,18.0,61,0.00,-SN,OVC,0.00,WeatherDisplay:10.37,2013-02-04 18:09:00,
2013-02-04 13:19:00,14.4,2.3,29.72,West,272,6.0,17.0,58,0.00,-SN,OVC,0.00,WeatherDisplay:10.37,2013-02-04 18:19:00,
2013-02-04 13:24:00,15.1,2.6,29.73,WNW,289,7.0,14.0,57,0.00,-SN,OVC,0.00,WeatherDisplay:10.37,2013-02-04 18:24:00,
2013-02-04 13:29:00,15.6,2.7,29.73,West,266,6.0,15.0,56,0.00,-SN,OVC,0.00,WeatherDisplay:10.37,2013-02-04 18:29:00,
2013-02-04 13:34:00,15.7,3.2,29.73,West,275,7.0,14.0,57,0.00,-SN,OVC,0.00,WeatherDisplay:10.37,2013-02-04 18:34:00,
2013-02-04 13:39:00,16.0,3.8,29.73,WNW,287,6.0,15.0,58,0.00,-SN,OVC,0.00,WeatherDisplay:10.37,2013-02-04 18:39:00,
2013-02-04 13:44:00,16.2,4.4,29.73,WSW,256,5.0,15.0,59,0.00,-SN,OVC,0.00,WeatherDisplay:10.37,2013-02-04 18:44:00,
2013-02-04 13:49:00,16.2,4.4,29.73,West,267,7.0,16.0,59,0.00,-SN,OVC,0.00,WeatherDisplay:10.37,2013-02-04 18:49:00,
2013-02-04 13:54:00,16.0,5.2,29.74,NW,314,7.0,14.0,62,0.00,-SN,OVC,0.00,WeatherDisplay:10.37,2013-02-04 18:54:00,
2013-02-04 13:59:00,15.2,5.9,29.74,NW,314,6.0,14.0,66,0.00,-SN,OVC,0.00,WeatherDisplay:10.37,2013-02-04 18:59:00,
2013-02-04 14:04:00,15.1,6.5,29.74,WNW,297,8.0,15.0,68,0.00,-SN,OVC,0.00,WeatherDisplay:10.37,2013-02-04 19:04:00,
2013-02-04 14:09:00,14.4,4.8,29.75,NW,304,8.0,20.0,65,0.00,-SN,OVC,0.00,WeatherDisplay:10.37,2013-02-04 19:09:00,
2013-02-04 14:14:00,14.2,2.4,29.75,WNW,297,10.0,18.0,59,0.00,-SN,OVC,0.00,WeatherDisplay:10.37,2013-02-04 19:14:00,
2013-02-04 14:19:00,14.4,1.1,29.76,WNW,299,7.0,14.0,55,0.00,-SN,OVC,0.00,WeatherDisplay:10.37,2013-02-04 19:19:00,
2013-02-04 14:24:00,14.2,1.4,29.76,WNW,284,7.0,14.0,56,0.00,-SN,OVC,0.00,WeatherDisplay:10.37,2013-02-04 19:24:00,
2013-02-04 14:29:00,14.0,1.9,29.76,WNW,285,8.0,20.0,58,0.00,-SN,OVC,0.00,WeatherDisplay:10.37,2013-02-04 19:29:00,
2013-02-04 14:34:00,13.2,0.0,29.76,NW,304,9.0,21.0,55,0.00,-SN,OVC,0.00,WeatherDisplay:10.37,2013-02-04 19:34:00,
2013-02-04 14:39:00,12.5,-1.0,29.77,NW,307,9.0,16.0,54,0.00,-SN,OVC,0.00,WeatherDisplay:10.37,2013-02-04 19:39:00,
2013-02-04 14:44:00,12.0,-1.1,29.76,WNW,302,8.0,17.0,55,0.00,-SN,OVC,0.00,WeatherDisplay:10.37,2013-02-04 19:44:00,
2013-02-04 14:49:00,12.0,-1.9,29.77,NW,309,8.0,16.0,53,0.00,-SN,OVC,0.00,WeatherDisplay:10.37,2013-02-04 19:49:00,
2013-02-04 14:54:00,12.0,-1.9,29.77,WNW,301,8.0,20.0,53,0.00,-SN,OVC,0.00,WeatherDisplay:10.37,2013-02-04 19:54:00,
2013-02-04 14:59:00,11.8,-2.5,29.77,WNW,297,9.0,20.0,52,0.00,-SN,OVC,0.00,WeatherDisplay:10.37,2013-02-04 19:59:00,
2013-02-04 15:04:00,11.5,-2.8,29.78,NW,305,8.0,17.0,52,0.00,-SN,OVC,0.00,WeatherDisplay:10.37,2013-02-04 20:04:00,
2013-02-04 15:09:00,11.2,-2.6,29.78,WNW,290,9.0,20.0,53,0.00,-SN,OVC,0.00,WeatherDisplay:10.37,2013-02-04 20:09:00,
2013-02-04 15:14:00,11.0,-2.9,29.78,WNW,284,5.0,14.0,53,0.00,BKN,OVC,0.00,WeatherDisplay:10.37,2013-02-04 20:14:00,
2013-02-04 15:19:00,10.7,-2.7,29.78,WNW,294,9.0,15.0,54,0.00,BKN,OVC,0.00,WeatherDisplay:10.37,2013-02-04 20:19:00,
2013-02-04 15:29:00,11.1,-2.4,29.79,WNW,287,5.0,12.0,54,0.00,BKN,OVC,0.00,WeatherDisplay:10.37,2013-02-04 20:29:00,
2013-02-04 15:34:00,11.3,-2.5,29.79,WNW,294,6.0,12.0,53,0.00,BKN,OVC,0.00,WeatherDisplay:10.37,2013-02-04 20:34:00,
2013-02-04 15:39:00,11.3,-2.9,29.79,West,264,6.0,14.0,52,0.00,BKN,OVC,0.00,WeatherDisplay:10.37,2013-02-04 20:39:00,
2013-02-04 15:49:00,11.1,-2.7,29.80,WNW,296,7.0,14.0,53,0.00,BKN,OVC,0.00,WeatherDisplay:10.37,2013-02-04 20:49:00,
2013-02-04 15:54:00,11.0,-2.4,29.80,NW,304,6.0,15.0,54,0.00,BKN,OVC,0.00,WeatherDisplay:10.37,2013-02-04 20:54:00,
2013-02-04 15:59:00,10.8,-2.6,29.80,WNW,300,8.0,18.0,54,0.00,BKN,OVC,0.00,WeatherDisplay:10.37,2013-02-04 20:59:00,
2013-02-04 16:04:00,10.6,-2.8,29.80,WNW,300,9.0,17.0,54,0.00,BKN,OVC,0.00,WeatherDisplay:10.37,2013-02-04 21:04:00,
2013-02-04 16:09:00,10.5,-2.5,29.80,WNW,291,8.0,16.0,55,0.00,BKN,OVC,0.00,WeatherDisplay:10.37,2013-02-04 21:09:00,
2013-02-04 16:14:00,10.4,-3.0,29.80,WNW,301,6.0,16.0,54,0.00,FEW,OVC,0.00,WeatherDisplay:10.37,2013-02-04 21:14:00,
2013-02-04 16:19:00,10.3,-2.7,29.80,WNW,291,3.0,10.0,55,0.00,FEW,OVC,0.00,WeatherDisplay:10.37,2013-02-04 21:19:00,
2013-02-04 16:24:00,10.2,-2.8,29.80,WNW,282,6.0,12.0,55,0.00,FEW,OVC,0.00,WeatherDisplay:10.37,2013-02-04 21:24:00,
2013-02-04 16:29:00,10.0,-3.4,29.81,WNW,288,6.0,13.0,54,0.00,FEW,OVC,0.00,WeatherDisplay:10.37,2013-02-04 21:29:00,
2013-02-04 16:34:00,9.8,-3.5,29.81,WNW,282,8.0,18.0,54,0.00,FEW,OVC,0.00,WeatherDisplay:10.37,2013-02-04 21:34:00,
2013-02-04 16:39:00,9.7,-4.0,29.81,West,275,3.0,12.0,53,0.00,FEW,OVC,0.00,WeatherDisplay:10.37,2013-02-04 21:39:00,
2013-02-04 16:44:00,9.5,-3.8,29.81,West,273,3.0,13.0,54,0.00,FEW,OVC,0.00,WeatherDisplay:10.37,2013-02-04 21:44:00,
2013-02-04 16:49:00,9.3,-4.0,29.81,West,281,2.0,8.0,54,0.00,FEW,OVC,0.00,WeatherDisplay:10.37,2013-02-04 21:49:00,
2013-02-04 16:54:00,9.1,-4.2,29.82,West,270,6.0,12.0,54,0.00,FEW,OVC,0.00,WeatherDisplay:10.37,2013-02-04 21:54:00,
2013-02-04 16:59:00,8.9,-4.4,29.82,WNW,293,8.0,14.0,54,0.00,FEW,OVC,0.00,WeatherDisplay:10.37,2013-02-04 21:59:00,
2013-02-04 17:04:00,8.9,-4.4,29.82,WNW,296,7.0,14.0,54,0.00,FEW,OVC,0.00,WeatherDisplay:10.37,2013-02-04 22:04:00,
2013-02-04 17:09:00,8.8,-4.9,29.82,WNW,301,5.0,14.0,53,0.00,FEW,OVC,0.00,WeatherDisplay:10.37,2013-02-04 22:09:00,
2013-02-04 17:19:00,8.4,-5.2,29.83,WNW,290,8.0,14.0,53,0.00,FEW,OVC,0.00,WeatherDisplay:10.37,2013-02-04 22:19:00,
2013-02-04 17:24:00,8.4,-5.2,29.83,WNW,294,6.0,12.0,53,0.00,FEW,OVC,0.00,WeatherDisplay:10.37,2013-02-04 22:24:00,
2013-02-04 17:29:00,8.1,-5.1,29.83,WNW,284,3.0,9.0,54,0.00,FEW,OVC,0.00,WeatherDisplay:10.37,2013-02-04 22:29:00,
2013-02-04 17:34:00,8.0,-5.2,29.83,West,275,6.0,9.0,54,0.00,FEW,OVC,0.00,WeatherDisplay:10.37,2013-02-04 22:34:00,
2013-02-04 17:44:00,7.5,-5.3,29.84,WNW,295,3.0,7.0,55,0.00,FEW,OVC,0.00,WeatherDisplay:10.37,2013-02-04 22:44:00,
2013-02-04 17:49:00,7.3,-5.5,29.84,WNW,291,3.0,7.0,55,0.00,FEW,OVC,0.00,WeatherDisplay:10.37,2013-02-04 22:49:00,
2013-02-04 17:54:00,7.2,-5.6,29.84,WNW,290,3.0,8.0,55,0.00,FEW,OVC,0.00,WeatherDisplay:10.37,2013-02-04 22:54:00,
2013-02-04 17:59:00,7.0,-5.4,29.84,WNW,285,2.0,6.0,56,0.00,FEW,OVC,0.00,WeatherDisplay:10.37,2013-02-04 22:59:00,
2013-02-04 18:04:00,6.9,-5.5,29.84,WNW,283,3.0,7.0,56,0.00,FEW,OVC,0.00,WeatherDisplay:10.37,2013-02-04 23:04:00,
2013-02-04 18:09:00,6.9,-5.5,29.85,WNW,302,3.0,8.0,56,0.00,FEW,OVC,0.00,WeatherDisplay:10.37,2013-02-04 23:09:00,
2013-02-04 18:14:00,6.7,-5.7,29.85,WNW,295,2.0,7.0,56,0.00,SKC,OVC,0.00,WeatherDisplay:10.37,2013-02-04 23:14:00,
2013-02-04 18:19:00,6.6,-5.8,29.85,WNW,302,1.0,7.0,56,0.00,SKC,OVC,0.00,WeatherDisplay:10.37,2013-02-04 23:19:00,
2013-02-04 18:24:00,6.2,-5.8,29.85,NW,304,1.0,4.0,57,0.00,SKC,OVC,0.00,WeatherDisplay:10.37,2013-02-04 23:24:00,
2013-02-04 18:29:00,5.8,-5.8,29.85,WNW,285,1.0,4.0,58,0.00,SKC,OVC,0.00,WeatherDisplay:10.37,2013-02-04 23:29:00,
2013-02-04 18:34:00,5.5,-6.1,29.85,WNW,282,1.0,4.0,58,0.00,SKC,OVC,0.00,WeatherDisplay:10.37,2013-02-04 23:34:00,
2013-02-04 18:39:00,5.3,-5.9,29.86,WNW,286,1.0,3.0,59,0.00,SKC,OVC,0.00,WeatherDisplay:10.37,2013-02-04 23:39:00,
2013-02-04 18:44:00,5.0,-6.2,29.86,West,278,0.0,2.0,59,0.00,SKC,OVC,0.00,WeatherDisplay:10.37,2013-02-04 23:44:00,
2013-02-04 18:49:00,4.3,-6.2,29.86,West,275,0.0,2.0,61,0.00,SKC,OVC,0.00,WeatherDisplay:10.37,2013-02-04 23:49:00,
2013-02-04 18:54:00,4.3,-6.2,29.86,West,274,2.0,4.0,61,0.00,SKC,OVC,0.00,WeatherDisplay:10.37,2013-02-04 23:54:00,
2013-02-04 19:04:00,4.6,-6.3,29.87,WNW,290,1.0,5.0,60,0.00,SKC,OVC,0.00,WeatherDisplay:10.37,2013-02-05 00:04:00,
2013-02-04 19:09:00,4.7,-6.5,29.86,WNW,288,2.0,6.0,59,0.00,SKC,OVC,0.00,WeatherDisplay:10.37,2013-02-05 00:09:00,
2013-02-04 19:14:00,4.8,-6.4,29.87,WNW,289,1.0,7.0,59,0.00,SKC,OVC,0.00,WeatherDisplay:10.37,2013-02-05 00:14:00,
2013-02-04 19:19:00,4.5,-6.7,29.87,WNW,296,2.0,6.0,59,0.00,SKC,OVC,0.00,WeatherDisplay:10.37,2013-02-05 00:19:00,
2013-02-04 19:24:00,4.7,-6.9,29.87,WNW,294,5.0,10.0,58,0.00,SKC,OVC,0.00,WeatherDisplay:10.37,2013-02-05 00:24:00,
2013-02-04 19:29:00,4.7,-6.9,29.87,WNW,297,1.0,7.0,58,0.00,SKC,OVC,0.00,WeatherDisplay:10.37,2013-02-05 00:29:00,
2013-02-04 19:34:00,4.6,-7.0,29.88,WNW,293,5.0,10.0,58,0.00,SKC,OVC,0.00,WeatherDisplay:10.37,2013-02-05 00:34:00,
2013-02-04 19:39:00,4.5,-7.0,29.88,WNW,293,3.0,7.0,58,0.00,SKC,OVC,0.00,WeatherDisplay:10.37,2013-02-05 00:39:00,
2013-02-04 19:44:00,4.4,-7.2,29.88,WNW,288,3.0,6.0,58,0.00,SKC,OVC,0.00,WeatherDisplay:10.37,2013-02-05 00:44:00,
2013-02-04 19:49:00,4.3,-7.2,29.88,WNW,301,3.0,9.0,58,0.00,SKC,OVC,0.00,WeatherDisplay:10.37,2013-02-05 00:49:00,
2013-02-04 19:54:00,4.3,-7.6,29.88,WNW,298,2.0,8.0,57,0.00,SKC,OVC,0.00,WeatherDisplay:10.37,2013-02-05 00:54:00,
2013-02-04 19:59:00,4.2,-7.7,29.88,WNW,293,5.0,7.0,57,0.00,SKC,OVC,0.00,WeatherDisplay:10.37,2013-02-05 00:59:00,
2013-02-04 20:04:00,4.1,-7.8,29.88,West,280,2.0,9.0,57,0.00,SKC,OVC,0.00,WeatherDisplay:10.37,2013-02-05 01:04:00,
2013-02-04 20:09:00,4.0,-7.5,29.88,WNW,283,3.0,7.0,58,0.00,SKC,OVC,0.00,WeatherDisplay:10.37,2013-02-05 01:09:00,
2013-02-04 20:14:00,3.9,-7.6,29.88,WNW,292,1.0,6.0,58,0.00,SKC,OVC,0.00,WeatherDisplay:10.37,2013-02-05 01:14:00,
2013-02-04 20:19:00,3.8,-7.7,29.88,WNW,285,3.0,7.0,58,0.00,SKC,OVC,0.00,WeatherDisplay:10.37,2013-02-05 01:19:00,
2013-02-04 20:24:00,3.8,-7.7,29.88,WNW,294,2.0,6.0,58,0.00,SKC,OVC,0.00,WeatherDisplay:10.37,2013-02-05 01:24:00,
2013-02-04 20:29:00,3.8,-8.1,29.89,WNW,303,1.0,6.0,57,0.00,SKC,OVC,0.00,WeatherDisplay:10.37,2013-02-05 01:29:00,
2013-02-04 20:34:00,3.8,-7.7,29.89,NW,304,2.0,5.0,58,0.00,SKC,OVC,0.00,WeatherDisplay:10.37,2013-02-05 01:34:00,
2013-02-04 20:39:00,3.7,-7.8,29.89,WNW,300,1.0,4.0,58,0.00,SKC,OVC,0.00,WeatherDisplay:10.37,2013-02-05 01:39:00,
2013-02-04 20:44:00,3.5,-8.0,29.89,WNW,286,0.0,3.0,58,0.00,SKC,OVC,0.00,WeatherDisplay:10.37,2013-02-05 01:44:00,
2013-02-04 20:49:00,3.3,-8.2,29.89,WNW,301,1.0,4.0,58,0.00,SKC,OVC,0.00,WeatherDisplay:10.37,2013-02-05 01:49:00,
2013-02-04 20:54:00,3.2,-7.9,29.90,NW,305,1.0,3.0,59,0.00,SKC,OVC,0.00,WeatherDisplay:10.37,2013-02-05 01:54:00,
2013-02-04 20:59:00,3.0,-8.1,29.90,WNW,294,1.0,4.0,59,0.00,SKC,OVC,0.00,WeatherDisplay:10.37,2013-02-05 01:59:00,
2013-02-04 21:04:00,2.8,-8.3,29.90,WNW,290,0.0,3.0,59,0.00,SKC,OVC,0.00,WeatherDisplay:10.37,2013-02-05 02:04:00,
2013-02-04 21:09:00,2.6,-8.1,29.90,West,267,1.0,7.0,60,0.00,SKC,OVC,0.00,WeatherDisplay:10.37,2013-02-05 02:09:00,
2013-02-04 21:14:00,2.4,-8.3,29.90,West,272,2.0,7.0,60,0.00,SKC,OVC,0.00,WeatherDisplay:10.37,2013-02-05 02:14:00,
2013-02-04 21:19:00,2.3,-8.7,29.90,WNW,291,2.0,6.0,59,0.00,SKC,OVC,0.00,WeatherDisplay:10.37,2013-02-05 02:19:00,
2013-02-04 21:24:00,2.3,-8.4,29.90,WNW,288,0.0,5.0,60,0.00,SKC,OVC,0.00,WeatherDisplay:10.37,2013-02-05 02:24:00,
2013-02-04 21:29:00,2.2,-8.5,29.90,WNW,286,2.0,6.0,60,0.00,SKC,OVC,0.00,WeatherDisplay:10.37,2013-02-05 02:29:00,
2013-02-04 21:34:00,2.1,-8.6,29.90,WNW,295,1.0,4.0,60,0.00,SKC,OVC,0.00,WeatherDisplay:10.37,2013-02-05 02:34:00,
2013-02-04 21:39:00,1.9,-8.8,29.90,WNW,299,0.0,3.0,60,0.00,SKC,OVC,0.00,WeatherDisplay:10.37,2013-02-05 02:39:00,
2013-02-04 21:44:00,1.8,-8.9,29.90,WNW,298,0.0,2.0,60,0.00,SKC,OVC,0.00,WeatherDisplay:10.37,2013-02-05 02:44:00,
2013-02-04 21:49:00,1.6,-8.8,29.90,WNW,296,0.0,1.0,61,0.00,SKC,OVC,0.00,WeatherDisplay:10.37,2013-02-05 02:49:00,
2013-02-04 21:54:00,1.4,-9.0,29.90,WNW,297,0.0,1.0,61,0.00,SKC,OVC,0.00,WeatherDisplay:10.37,2013-02-05 02:54:00,
2013-02-04 21:59:00,1.0,-9.3,29.90,WNW,301,2.0,5.0,61,0.00,SKC,OVC,0.00,WeatherDisplay:10.37,2013-02-05 02:59:00,
2013-02-04 22:04:00,0.7,-9.3,29.90,WNW,287,1.0,3.0,62,0.00,SKC,OVC,0.00,WeatherDisplay:10.37,2013-02-05 03:04:00,
2013-02-04 22:09:00,0.5,-9.5,29.91,WNW,286,0.0,2.0,62,0.00,SKC,OVC,0.00,WeatherDisplay:10.37,2013-02-05 03:09:00,
2013-02-04 22:14:00,0.3,-9.7,29.91,WNW,294,0.0,4.0,62,0.00,SKC,OVC,0.00,WeatherDisplay:10.37,2013-02-05 03:14:00,
2013-02-04 22:19:00,0.1,-9.9,29.91,WNW,297,0.0,5.0,62,0.00,SKC,OVC,0.00,WeatherDisplay:10.37,2013-02-05 03:19:00,
2013-02-04 22:24:00,0.0,-9.9,29.91,WNW,290,0.0,1.0,62,0.00,SKC,OVC,0.00,WeatherDisplay:10.37,2013-02-05 03:24:00,
2013-02-04 22:29:00,-0.1,-10.0,29.91,WSW,242,0.0,2.0,62,0.00,SKC,OVC,0.00,WeatherDisplay:10.37,2013-02-05 03:29:00,
2013-02-04 22:34:00,-0.2,-10.2,29.91,WSW,255,0.0,1.0,62,0.00,SKC,OVC,0.00,WeatherDisplay:10.37,2013-02-05 03:34:00,
2013-02-04 22:39:00,-0.4,-10.0,29.91,West,259,0.0,0.0,63,0.00,SKC,OVC,0.00,WeatherDisplay:10.37,2013-02-05 03:39:00,
2013-02-04 22:44:00,-0.6,-10.2,29.91,West,259,0.0,0.0,63,0.00,SKC,OVC,0.00,WeatherDisplay:10.37,2013-02-05 03:44:00,
2013-02-04 22:49:00,-0.9,-10.2,29.91,West,259,0.0,0.0,64,0.00,SKC,OVC,0.00,WeatherDisplay:10.37,2013-02-05 03:49:00,
2013-02-04 22:54:00,-1.3,-10.2,29.91,West,259,0.0,0.0,65,0.00,SKC,OVC,0.00,WeatherDisplay:10.37,2013-02-05 03:54:00,
2013-02-04 22:59:00,-1.6,-10.5,29.91,West,259,0.0,0.0,65,0.00,SKC,OVC,0.00,WeatherDisplay:10.37,2013-02-05 03:59:00,
2013-02-04 23:04:00,-2.0,-10.6,29.92,West,259,0.0,1.0,66,0.00,SKC,OVC,0.00,WeatherDisplay:10.37,2013-02-05 04:04:00,
2013-02-04 23:09:00,-2.5,-11.0,29.92,West,260,0.0,1.0,66,0.00,SKC,OVC,0.00,WeatherDisplay:10.37,2013-02-05 04:09:00,
2013-02-04 23:14:00,-2.8,-11.1,29.92,West,275,0.0,5.0,67,0.00,SKC,OVC,0.00,WeatherDisplay:10.37,2013-02-05 04:14:00,
2013-02-04 23:19:00,-3.1,-11.0,29.92,West,276,0.0,1.0,68,0.00,SKC,OVC,0.00,WeatherDisplay:10.37,2013-02-05 04:19:00,
2013-02-04 23:24:00,-3.4,-11.3,29.92,WNW,284,1.0,3.0,68,0.00,SKC,OVC,0.00,WeatherDisplay:10.37,2013-02-05 04:24:00,
2013-02-04 23:29:00,-3.6,-11.2,29.92,WNW,298,1.0,2.0,69,0.00,SKC,OVC,0.00,WeatherDisplay:10.37,2013-02-05 04:29:00,
2013-02-04 23:39:00,-3.8,-11.4,29.93,WNW,295,0.0,1.0,69,0.00,SKC,OVC,0.00,WeatherDisplay:10.37,2013-02-05 04:39:00,
2013-02-04 23:44:00,-3.8,-11.4,29.93,WNW,294,0.0,1.0,69,0.00,SKC,OVC,0.00,WeatherDisplay:10.37,2013-02-05 04:44:00,
2013-02-04 23:49:00,-3.9,-11.5,29.93,WNW,294,0.0,1.0,69,0.00,SKC,OVC,0.00,WeatherDisplay:10.37,2013-02-05 04:49:00,
2013-02-04 23:54:00,-4.0,-11.3,29.93,WNW,294,0.0,0.0,70,0.00,SKC,OVC,0.00,WeatherDisplay:10.37,2013-02-05 04:54:00,
2013-02-04 23:59:00,-4.1,-11.4,29.93,WNW,294,0.0,0.0,70,0.00,SKC,OVC,0.00,WeatherDisplay:10.37,2013-02-05 04:59:00,